星链-30513 (STARLINK-30513 )

导读

STARLINK-30513是美国太空探索技术公司SpaceX于2023年10月13日发射的星链卫星,属于星链第二代小卫星V2 Mini版本,具备星链直连手机功能,可作为太空基站实现手机直连卫星通信,运行在低地球轨道,通过星间激光链路接入现有星链星座,为全球提供宽带互联网服务。

Basic Information
目录编号:
58071
目录名称:
STARLINK-30513
国际标识:
2023-158W
轨道中心:
EARTH
卫星名称:
星链-30513
卫星全名:
星链-30513 (STARLINK-30513 )
卫星状态:
已陨落 最后检测时间 2026-03-18
发射日期:
2023-10-13 UTC
国别 :
美国 (US)
星等 :
--
Orbit Information
数据来源 国际轨道数据
星历时间: 2026-03-18T15:25:00+0800
轨道信息已过期94天
半长轴: 6561.311km
偏心率: 0.0009373
轨道倾角: 42.969°
近地点辐角 222.924°
升交点赤经 26.918°
平近点角 137.092°
近地点: 177.024km
远地点: 189.324km
周期: 88.155分钟
每日圈数: 16.334916
Detailed Information
固有亮度:
5
最大亮度:
0.3
卫星平台:
Starlink v2.0 mini
覆盖范围:
全球
运营商:
太空探索技术公司
运营商所在国:
美国
制造商(研发单位):
太空探索技术公司
制造商所在国:
美国
使用方式:
暂无
Satellite Introduction
星链(Starlink)计划是由太空探索技术公司(SpaceX)提出的一个巨型低轨卫星互联网星座项目,计划在2019年至2024年间在太空搭建由约1.2万颗卫星组成的“星链”网络,其中1584颗将部署在地球上空550千米处的近地轨道,并从2020年开始工作。该卫星仍在工作。